Cook, MN

12:09 AM CST on February 28, 2017 (GMT -0600)
Cook Municipal

Weather History for KCQM - October, 2011

Change the Weather History Date:

Friday, October 7, 2011

  Actual Average Record
Temperature  
Mean Temperature 71 °F -  
Max Temperature 78 °F 55 °F 80 °F (2003)
Min Temperature 64 °F 34 °F 19 °F (2001)
Cooling Degree Days 6    
Growing Degree Days 21 (Base 50)    
Moisture  
Dew Point 52 °F    
Average Humidity 53    
Maximum Humidity 60    
Minimum Humidity 42    
Precipitation  
Precipitation 0.00 in - - ()
Sea Level Pressure  
Sea Level Pressure 29.86 in    
Wind  
Wind Speed 13 mph (SSE)    
Max Wind Speed 25 mph    
Max Gust Speed 33 mph    
Visibility 10 miles    
Events      
Averages and records for this station are not official NWS values.
T = Trace of Precipitation, MM = Missing Value Source: NWS Daily Summary

Daily Weather History Graph

Daily Weather History Graph

Search for Another Location

Airport or City:

Trip Planner

Search our weather history database for the weather conditions in past years. The results will help you decide how hot, cold, wet, or windy it might be!

Date:

Astronomy

Oct. 07, 2011 Rise Set
Actual Time 7:17 AM CDT 6:38 PM CDT
Civil Twilight 6:47 AM CDT 7:09 PM CDT
Nautical Twilight 6:11 AM CDT 7:45 PM CDT
Astronomical Twilight 5:35 AM CDT 8:21 PM CDT
Moon 4:35 PM CDT (10/7) 2:50 AM CDT (10/7)
Length of Visible Light 12h 22m
Length of Day
11h 20m
Waxing Gibbous, 83% of the Moon is Illuminated
Oct 7
Waxing Gibbous
Oct 11
Full
Oct 19
Last Quarter
Oct 26
New
Nov 2
First Quarter

Hourly Weather History & Observations

Time (CDT) Temp. Dew Point Humidity Pressure Visibility Wind Dir Wind Speed Gust Speed Precip Events Conditions
12:16 AM 64.4 °F 46.4 °F 52% 30.02 in 10.0 mi SSE 10.4 mph 18.4 mph N/A   Clear
12:37 AM 64.4 °F 46.4 °F 52% 30.02 in 10.0 mi SSE 10.4 mph 18.4 mph N/A   Clear
1:16 AM 64.4 °F 48.2 °F 56% 30.01 in 10.0 mi SSE 10.4 mph 16.1 mph N/A   Clear
1:37 AM 64.4 °F 48.2 °F 56% 30.01 in 10.0 mi SSE 10.4 mph - N/A   Clear
1:56 AM 66.2 °F 48.2 °F 52% 30.00 in 10.0 mi SSE 13.8 mph 20.7 mph N/A   Clear
2:37 AM 64.4 °F 48.2 °F 56% 29.99 in 10.0 mi SSE 11.5 mph 16.1 mph N/A   Clear
2:56 AM 64.4 °F 48.2 °F 56% 29.99 in 10.0 mi SSE 12.7 mph 19.6 mph N/A   Clear
3:16 AM 64.4 °F 48.2 °F 56% 29.99 in 10.0 mi SSE 9.2 mph 19.6 mph N/A   Clear
3:37 AM 64.4 °F 48.2 °F 56% 29.98 in 10.0 mi SSE 11.5 mph 18.4 mph N/A   Clear
3:56 AM 64.4 °F 48.2 °F 56% 29.98 in 10.0 mi SSE 13.8 mph 21.9 mph N/A   Clear
4:16 AM 64.4 °F 48.2 °F 56% 29.98 in 10.0 mi SSE 10.4 mph 16.1 mph N/A   Clear
4:37 AM 64.4 °F 48.2 °F 56% 29.98 in 10.0 mi SSE 12.7 mph 21.9 mph N/A   Clear
4:56 AM 64.4 °F 48.2 °F 56% 29.97 in 10.0 mi SSE 10.4 mph 17.3 mph N/A   Clear
5:16 AM 64.4 °F 48.2 °F 56% 29.96 in 10.0 mi SSE 11.5 mph - N/A   Clear
5:37 AM 64.4 °F 48.2 °F 56% 29.96 in 10.0 mi SSE 9.2 mph 19.6 mph N/A   Clear
5:56 AM 64.4 °F 48.2 °F 56% 29.96 in 10.0 mi SSE 12.7 mph 20.7 mph N/A   Clear
6:16 AM 64.4 °F 48.2 °F 56% 29.96 in 10.0 mi SSE 11.5 mph 21.9 mph N/A   Clear
6:37 AM 64.4 °F 48.2 °F 56% 29.95 in 10.0 mi SSE 11.5 mph 17.3 mph N/A   Clear
6:56 AM 64.4 °F 48.2 °F 56% 29.94 in 10.0 mi SSE 11.5 mph 18.4 mph N/A   Clear
7:16 AM 64.4 °F 50.0 °F 59% 29.94 in 10.0 mi SSE 12.7 mph 20.7 mph N/A   Clear
7:37 AM 64.4 °F 50.0 °F 59% 29.94 in 10.0 mi SSE 10.4 mph 19.6 mph N/A   Clear
8:17 AM 64.4 °F 50.0 °F 59% 29.92 in 10.0 mi SE 12.7 mph 18.4 mph N/A   Clear
8:37 AM 64.4 °F 50.0 °F 59% 29.92 in 10.0 mi SSE 12.7 mph 21.9 mph N/A   Clear
8:56 AM 66.2 °F 50.0 °F 56% 29.91 in 10.0 mi SSE 13.8 mph 19.6 mph N/A   Clear
9:17 AM 66.2 °F 50.0 °F 56% 29.90 in 10.0 mi SSE 15.0 mph 21.9 mph N/A   Clear
9:37 AM 66.2 °F 51.8 °F 60% 29.91 in 10.0 mi SSE 15.0 mph 21.9 mph N/A   Clear
9:56 AM 66.2 °F 51.8 °F 60% 29.91 in 10.0 mi SSE 15.0 mph 23.0 mph N/A   Clear
10:17 AM 68.0 °F 51.8 °F 56% 29.90 in 10.0 mi SSE 11.5 mph 19.6 mph N/A   Clear
10:37 AM 69.8 °F 51.8 °F 53% 29.89 in 10.0 mi SSE 13.8 mph 25.3 mph N/A   Clear
10:56 AM 69.8 °F 51.8 °F 53% 29.89 in 10.0 mi SSE 16.1 mph 21.9 mph N/A   Clear
11:17 AM 71.6 °F 51.8 °F 50% 29.87 in 10.0 mi SSE 12.7 mph 20.7 mph N/A   Clear
11:37 AM 71.6 °F 51.8 °F 50% 29.86 in 10.0 mi SSE 15.0 mph 18.4 mph N/A   Clear
11:56 AM 71.6 °F 51.8 °F 50% 29.86 in 10.0 mi SE 16.1 mph 28.8 mph N/A   Clear
12:37 PM 73.4 °F 51.8 °F 47% 29.84 in 10.0 mi SSE 16.1 mph 27.6 mph N/A   Clear
1:17 PM 73.4 °F 51.8 °F 47% 29.82 in 10.0 mi SSE 18.4 mph 26.5 mph N/A   Clear
1:37 PM 75.2 °F 53.6 °F 47% 29.80 in 10.0 mi SSE 20.7 mph 29.9 mph N/A   Clear
1:56 PM 75.2 °F 53.6 °F 47% 29.80 in 10.0 mi South 12.7 mph 23.0 mph N/A   Clear
2:36 PM 78.8 °F 53.6 °F 42% 29.77 in 10.0 mi SSE 18.4 mph 29.9 mph N/A   Scattered Clouds
3:17 PM 78.8 °F 53.6 °F 42% 29.77 in 10.0 mi SSE 17.3 mph 24.2 mph N/A   Scattered Clouds
3:36 PM 78.8 °F 55.4 °F 44% 29.76 in 10.0 mi SSE 25.3 mph 33.4 mph N/A   Clear
4:21 PM 78.8 °F 55.4 °F 44% 29.75 in 10.0 mi SSE 17.3 mph 24.2 mph N/A   Scattered Clouds
4:57 PM 78.8 °F 55.4 °F 44% 29.74 in 10.0 mi South 18.4 mph 26.5 mph N/A   Scattered Clouds
5:16 PM 77.0 °F 55.4 °F 47% 29.74 in 10.0 mi South 17.3 mph 27.6 mph N/A   Mostly Cloudy
5:36 PM 77.0 °F 55.4 °F 47% 29.74 in 10.0 mi SSE 13.8 mph 27.6 mph N/A   Overcast
5:57 PM 77.0 °F 55.4 °F 47% 29.74 in 10.0 mi South 10.4 mph 19.6 mph N/A   Overcast
6:17 PM 77.0 °F 55.4 °F 47% 29.74 in 10.0 mi South 16.1 mph 26.5 mph N/A   Overcast
6:36 PM 77.0 °F 57.2 °F 50% 29.75 in 10.0 mi South 11.5 mph 21.9 mph N/A   Overcast
6:57 PM 75.2 °F 57.2 °F 53% 29.74 in 10.0 mi South 15.0 mph 26.5 mph N/A   Light Drizzle
7:16 PM 75.2 °F 57.2 °F 53% 29.74 in 10.0 mi SSE 17.3 mph 21.9 mph N/A   Overcast
7:36 PM 75.2 °F 57.2 °F 53% 29.73 in 10.0 mi SSE 13.8 mph 20.7 mph N/A   Mostly Cloudy
7:57 PM 75.2 °F 57.2 °F 53% 29.72 in 10.0 mi SSE 12.7 mph 25.3 mph N/A   Scattered Clouds
8:16 PM 75.2 °F 57.2 °F 53% 29.72 in 10.0 mi South 15.0 mph 29.9 mph N/A   Clear
8:37 PM 75.2 °F 57.2 °F 53% 29.72 in 10.0 mi South 13.8 mph 27.6 mph N/A   Clear
8:57 PM 75.2 °F 59.0 °F 57% 29.72 in 10.0 mi South 18.4 mph 26.5 mph N/A   Clear
9:16 PM 77.0 °F 59.0 °F 54% 29.72 in 10.0 mi South 17.3 mph 28.8 mph N/A   Scattered Clouds
9:37 PM 77.0 °F 59.0 °F 54% 29.72 in 10.0 mi South 20.7 mph 31.1 mph N/A   Mostly Cloudy
9:57 PM 77.0 °F 59.0 °F 54% 29.73 in 10.0 mi South 19.6 mph 28.8 mph N/A   Mostly Cloudy
10:16 PM 77.0 °F 59.0 °F 54% 29.73 in 10.0 mi South 17.3 mph 31.1 mph N/A   Mostly Cloudy
10:37 PM 75.2 °F 57.2 °F 53% 29.75 in 10.0 mi SSW 21.9 mph 35.7 mph N/A Thunderstorm Thunderstorm
10:55 PM 66.2 °F 64.4 °F 94% 29.79 in 2.5 mi SSW 19.6 mph 35.7 mph 0.19 in Rain , Thunderstorm Heavy Thunderstorms and Rain
10:57 PM 66.2 °F 64.4 °F 94% 29.79 in 2.0 mi SW 17.3 mph 35.7 mph 0.01 in Rain , Thunderstorm Heavy Thunderstorms and Rain
11:16 PM 66.2 °F 62.6 °F 88% 29.77 in 10.0 mi SSW 9.2 mph 16.1 mph 0.02 in Rain Light Rain
11:37 PM 66.2 °F 64.4 °F 94% 29.78 in 5.0 mi SW 9.2 mph - 0.10 in Rain Heavy Rain
11:55 PM 66.2 °F 64.4 °F 94% 29.81 in 7.0 mi SW 13.8 mph 21.9 mph 0.13 in Rain Rain
11:57 PM 66.2 °F 64.4 °F 94% 29.81 in 7.0 mi SW 12.7 mph 20.7 mph 0.01 in Rain Heavy Rain